This is the latest recevied weather packets stored in our database for station/object K1RFS. If no packets are shown the sender has not sent any weather packets the latest 10 day(s).
| Time | Temp. | Humidity | Pressure | Rain* | Wind** | Luminosity | Snow |
|---|---|---|---|---|---|---|---|
| 1777511353 | 12.78° C | 39% | 1003.8 hPa | 0 mm | - | 38 W/m² | - |
| 1777511048 | 13.33° C | 38% | 1003.8 hPa | 0 mm | - | 45 W/m² | - |
| 1777510745 | 13.33° C | 37% | 1003.8 hPa | 0 mm | - | 69 W/m² | - |
| 1777510442 | 13.89° C | 37% | 1003.8 hPa | 0 mm | - | 136 W/m² | - |
| 1777510137 | 13.89° C | 37% | 1003.7 hPa | 0 mm | - | 112 W/m² | - |
| 1777509835 | 13.33° C | 38% | 1003.8 hPa | 0 mm | - | 105 W/m² | - |
| 1777509530 | 13.33° C | 39% | 1003.8 hPa | 0 mm | - | 67 W/m² | - |
| 1777509227 | 13.89° C | 39% | 1003.7 hPa | 0 mm | - | 88 W/m² | - |
| 1777508924 | 13.33° C | 38% | 1003.9 hPa | 0 mm | - | 100 W/m² | - |
| 1777508621 | 13.89° C | 33% | 1003.9 hPa | 0 mm | - | 60 W/m² | - |
| 1777508319 | 13.89° C | 32% | 1003.7 hPa | 0 mm | - | 63 W/m² | - |
| 1777508015 | 15° C | 31% | 1003.9 hPa | 0 mm | - | 68 W/m² | - |
| 1777507712 | 15° C | 30% | 1003.8 hPa | 0 mm | - | 218 W/m² | - |
| 1777507409 | 15° C | 29% | 1003.7 hPa | 0 mm | - | 249 W/m² | - |
| 1777507106 | 15.56° C | 28% | 1003.7 hPa | 0 mm | - | 134 W/m² | - |
| 1777506804 | 15.56° C | 28% | 1003.7 hPa | 0 mm | - | 316 W/m² | - |
| 1777506500 | 14.44° C | 28% | 1003.6 hPa | 0 mm | - | 257 W/m² | - |
| 1777506196 | 14.44° C | 28% | 1003.7 hPa | 0 mm | - | 156 W/m² | - |
| 1777505893 | 14.44° C | 29% | 1003.7 hPa | 0 mm | - | 119 W/m² | - |
| 1777505588 | 14.44° C | 29% | 1003.6 hPa | 0 mm | - | 143 W/m² | - |
| 1777505285 | 14.44° C | 28% | 1003.7 hPa | 0 mm | - | 144 W/m² | - |
| 1777504982 | 14.44° C | 27% | 1003.7 hPa | 0 mm | - | 142 W/m² | - |
| 1777504679 | 14.44° C | 28% | 1003.8 hPa | 0 mm | - | 160 W/m² | - |
| 1777504376 | 14.44° C | 27% | 1003.7 hPa | 0 mm | - | 158 W/m² | - |
| 1777504076 | 14.44° C | 27% | 1003.7 hPa | 0 mm | - | 177 W/m² | - |
* Rain latest hour (hover to see other rain measurements)
** Current wind speed in m/s (hover to see current wind gust speed)